Home > Weather > Rarotonga > Past weeks

Flag for Cook Islands Past Weather in Rarotonga, Cook Islands — Yesterday and Last 2 Weeks

Now
73 °F

Scattered clouds.


Feels Like: 74 °F
Forecast: 72 / 78 °F
Wind: 8 mph from East

Location: Rarotonga

Current Time: Jun 29, 2016 at 8:21:41 AM

Latest Report: Jun 29, 2016 at 8:00 AM


Visibility: N/A

Pressure: 30.09 "Hg

Humidity: 78%

Dew Point: 66 °F

Location of RarotongaLocation

Past Weather in Rarotonga — Graph

°F

Rarotonga Temperature Yesterday

Maximum temperature yesterday: 79 °F (at 11:00 AM)
Minimum temperature yesterday: 70 °F (at 4:00 AM)
Average temperature yesterday: 74 °F

High & Low Weather Summary for the Past Weeks

 TemperatureHumidityPressure
High84 °F (Jun 19, 2:00 PM)100% (Jun 20, 10:00 AM)30.15 "Hg (Jun 20, 10:00 AM)
Low66 °F (Jun 22, 12:00 AM)54% (Jun 28, 11:00 AM)29.71 "Hg (Jun 20, 5:00 AM)
Average74 °F79%29.99 "Hg
* Reported Jun 14 7:00 AM — Jun 29 7:00 AM, Rarotonga, Weather by CustomWeather, © 2016

Note: Actual official high and low records may vary slightly from our data, if they occured in-between our weather recording intervals... More about our weather records

Advertising

Rarotonga Weather History for the Previous 24 Hours

Scroll right to see more
 ConditionsComfort  
Time TempWeatherWind HumidityBarometerVisibility
7:00 AM
Wed, Jun 29
72 °FPassing clouds.8 mph78%30.09 "HgN/A
6:00 AM72 °FPassing clouds.8 mph83%30.07 "HgN/A
5:00 AM72 °FPassing clouds.8 mph78%30.07 "HgN/A
4:00 AM72 °FPassing clouds.16 mph78%30.07 "HgN/A
3:00 AM72 °FPassing clouds.5 mph78%30.07 "HgN/A
2:00 AM73 °FPassing clouds.3 mph74%30.09 "HgN/A
1:00 AM73 °FPassing clouds.8 mph78%30.09 "HgN/A
12:00 AM73 °FPassing clouds.8 mph74%30.09 "HgN/A
11:00 PM
Tue, Jun 28
73 °FPassing clouds.6 mph74%30.12 "HgN/A
10:00 PM73 °FPassing clouds.7 mph74%30.12 "HgN/A
9:00 PM73 °FPartly cloudy.7 mph74%30.09 "HgN/A
8:00 PM73 °FPassing clouds.6 mph69%30.09 "HgN/A
7:00 PM73 °FPartly cloudy.7 mph69%30.07 "HgN/A
6:00 PM73 °FScattered clouds.6 mph69%30.07 "HgN/A
5:00 PM75 °FScattered clouds.9 mph65%30.07 "HgN/A
4:00 PM77 °FPassing clouds.8 mph65%30.04 "HgN/A
3:00 PM79 °FPassing clouds.10 mph54%30.04 "HgN/A
2:00 PM79 °FScattered clouds.15 mph54%30.07 "HgN/A
1:00 PM79 °FScattered clouds.12 mph54%30.09 "HgN/A
12:00 PM77 °FScattered clouds.12 mph57%30.12 "HgN/A
11:00 AM79 °FScattered clouds.9 mph54%30.12 "HgN/A
10:00 AM77 °FScattered clouds.7 mph65%30.12 "HgN/A
9:00 AM75 °FScattered clouds.7 mph65%30.12 "HgN/A
8:00 AM72 °FScattered clouds.7 mph73%30.12 "HgN/A
Weather by CustomWeather, © 2016

See weather overviewHow to use our weather pages